This is the latest recevied weather packets stored in our database for station/object N9CQS-15. If no packets are shown the sender has not sent any weather packets the latest 10 day(s).
| Time | Temp. | Humidity | Pressure | Rain* | Wind** | Luminosity | Snow |
|---|---|---|---|---|---|---|---|
| 1777819142 | 12.78° C | 59% | 1018.1 hPa | 0 mm | - | - | - |
| 1777818542 | 12.22° C | 60% | 1018.5 hPa | 0 mm | - | - | - |
| 1777817941 | 12.22° C | 60% | 1018.4 hPa | 0 mm | - | - | - |
| 1777817341 | 12.22° C | 60% | 1018.3 hPa | 0 mm | - | - | - |
| 1777816741 | 11.67° C | 60% | 1018.3 hPa | 0 mm | - | - | - |
| 1777816141 | 11.11° C | 64% | 1018.5 hPa | 0 mm | - | - | - |
| 1777815541 | 11.11° C | 64% | 1018.7 hPa | 0 mm | - | - | - |
| 1777814942 | 10.56° C | 69% | 1018.8 hPa | 0 mm | - | - | - |
| 1777814341 | 10° C | 71% | 1018.9 hPa | 0 mm | - | - | - |
| 1777813742 | 9.44° C | 71% | 1019 hPa | 0 mm | - | - | - |
| 1777813142 | 8.89° C | 72% | 1019 hPa | 0 mm | - | - | - |
| 1777812542 | 8.89° C | 74% | 1018.9 hPa | 0 mm | - | - | - |
| 1777811942 | 7.78° C | 77% | 1018.8 hPa | 0 mm | - | - | - |
| 1777811341 | 7.22° C | 77% | 1018.9 hPa | 0 mm | - | - | - |
| 1777810741 | 6.67° C | 77% | 1019 hPa | 0 mm | - | - | - |
| 1777810142 | 6.11° C | 76% | 1019 hPa | 0 mm | - | - | - |
| 1777809541 | 5.56° C | 76% | 1019 hPa | 0 mm | - | - | - |
| 1777808941 | 5.56° C | 75% | 1019 hPa | 0 mm | - | - | - |
| 1777808341 | 5° C | 75% | 1018.9 hPa | 0 mm | - | - | - |
| 1777807742 | 5° C | 74% | 1018.9 hPa | 0 mm | - | - | - |
| 1777807141 | 5° C | 74% | 1019 hPa | 0 mm | - | - | - |
| 1777806542 | 5° C | 73% | 1019 hPa | 0 mm | - | - | - |
| 1777805941 | 5° C | 73% | 1018.9 hPa | 0 mm | - | - | - |
| 1777805341 | 5° C | 72% | 1018.9 hPa | 0 mm | - | - | - |
| 1777804742 | 5° C | 72% | 1018.9 hPa | 0 mm | - | - | - |
* Rain latest hour (hover to see other rain measurements)
** Current wind speed in m/s (hover to see current wind gust speed)